PHASE 3B (AO-10) (14129 NORAD) Tracking and Keplerian Element Data

This shows tracking and keplerian element data for the satellite.

Feedback or suggestion? Click here.




ElementValue
Catalog14129
NamePHASE 3B (AO-10)
Epoch Orbit28521
Epoch Day34.0920282
Epoch Year2025
RAAN302.6871
Inclination27.1288
Eccentricity0.6045578
Argument of Perigee338.4006
Mean Anonmoly4.4489
Mean Motion2.05869051
Decay Rate1.03E-06
L11 14129U 83058B 25034.09202820 .00000103 00000+0 00000+0 0 9990
L22 14129 27.1288 302.6871 6045578 338.4006 4.4489 2.05869051285216



Live tracking and technical data element details for PHASE 3B (AO-10) (NORAD 14129). PHASE 3B (AO-10) can be tracked NOW for your location showing map with azimuth and elevation plus other details from your city location.







IsCatalogInMostPopularTable: catalog: 14129, numindb: 307
Update: records affected: 1



GetName: 14129 PHASE 3B (AO-10)

Hit Count: updated at: Sat, 06 Dec 2025 12:59:25 GMT